Temporada 2025 · Ronda 18

Singapore Grand Prix

2025-10-05 · Marina Bay Street Circuito · Singapore · Singapore Grand Prix · 62Lap · 305.337km
Mercedes 1:40:22.367
Victoria de equipo 35pt P1 · P5
Red Bull +5.430
McLaren +6.066
Vuelta rápida
1:33.808 · L48
Abandono
0
todos clasificados · 20 salidos
Clima
29°/34°
media aire/pista · lluvia · humedad 74%
Coche de seguridad
0
Despliegues de SC/VSC
Uso de neumáticos Dirección de carrera
Storylines · This Grand Prix & circuit
Más victorias en este GP
Sebastian Vettel 5 victorias
Lewis Hamilton activo 4 victorias
Conversión pole-victoria 11/16 68.8%
Most SC/VSC · all-time P14
Final más ajustado · all-time P20
Circuito Info
Marina Bay Street Circuito Marina Bay, Singapore
62Lap 305.337km 17 carreras held (2008–) Récord de vuelta 1:33.808 · Lewis Hamilton (2025)
Récords Watch · Active drivers ranked at this Grand Prix
P2 Lewis Hamilton 4 victorias · → Sebastian Vettel -1
P3 Fernando Alonso 2 victorias · → Lewis Hamilton -2
P4 Lando Norris 1 victorias · → Fernando Alonso -1
P1 Lewis Hamilton 16 salidas · GP #1
P2 Fernando Alonso 15 salidas · → Lewis Hamilton -1
P4 Nico Hülkenberg 12 salidas · → Sebastian Vettel -1
Carrera Trace · position by lap
salida parada SG 1 6 11 16 21 26 31 36 41 46 51 56 61 FIN Russell · parada en boxes L25 Russell RUS Russell RUS Verstappen · parada en boxes L19 Verstappen VER Verstappen VER Norris · parada en boxes L26 Norris NOR Norris NOR Piastri · parada en boxes L27 Piastri PIA Piastri PIA Antonelli · parada en boxes L25 Antonelli ANT Antonelli ANT Leclerc · parada en boxes L21 Leclerc LEC Leclerc LEC Alonso · parada en boxes L27 Alonso ALO Alonso ALO Hamilton · parada en boxes L24 Hamilton · parada en boxes L46 Hamilton · +5s sumado tras la carrera Hamilton HAM Hamilton HAM Bearman · parada en boxes L23 Bearman BEA Bearman BEA Sainz · parada en boxes L50 Sainz SAI Sainz SAI Hadjar · parada en boxes L20 Hadjar HAD Hadjar HAD Tsunoda · parada en boxes L13 Tsunoda TSU Tsunoda TSU Stroll · parada en boxes L38 Stroll STR Stroll STR Albon · parada en boxes L42 Albon ALB Albon ALB Lawson · parada en boxes L48 Lawson LAW Lawson LAW Colapinto · parada en boxes L14 Colapinto COL Colapinto COL Bortoleto · parada en boxes L13 Bortoleto BOR Bortoleto BOR Ocon · parada en boxes L30 Ocon OCO Ocon OCO Gasly · parada en boxes L24 Gasly · parada en boxes L51 Gasly GAS Gasly GAS Hülkenberg · parada en boxes L25 Hülkenberg · parada en boxes L44 Hülkenberg HUL Hülkenberg HUL
parada en boxes sanción cumplida en boxes SG Parrilla de salida FIN clasificación oficial sanción sumada tras la carrera coche detenido posición en cada vuelta (desde 1996)
PosPilotoTeamParrillaVueltaTiempo / EstadoPuntos
1 63 George Russell Mercedes 1 62 1:40:22.367 25
2 1 Max Verstappen Red Bull 2 62 +5.430 18
3 4 Lando Norris McLaren 5 62 +6.066 15
4 81 Oscar Piastri McLaren 3 62 +8.146 12
5 12 Andrea Kimi Antonelli Mercedes 4 62 +33.681 10
6 16 Charles Leclerc Ferrari 7 62 +45.996 8
7 14 Fernando Alonso Aston Martin 10 62 +1:20.667 6
8 44 Lewis Hamilton FL Ferrari 6 62 +1:25.251 4
9 87 Oliver Bearman Haas F1 Team 9 62 +1:33.527 2
10 55 Carlos Sainz Williams 18 61 +10.754 1
11 6 Isack Hadjar RB F1 Team 8 61 +17.335
12 22 Yuki Tsunoda Red Bull 13 61 +19.269
13 18 Lance Stroll Aston Martin 15 61 +24.490
14 23 Alexander Albon Williams 20 61 +25.320
15 30 Liam Lawson RB F1 Team 12 61 +27.145
16 43 Franco Colapinto Alpine F1 Team 16 61 +42.890
17 5 Gabriel Bortoleto Sauber 14 61 +46.753
18 31 Esteban Ocon Haas F1 Team 17 61 +47.133
19 10 Pierre Gasly Alpine F1 Team 19 61 +47.461
20 27 Nico Hülkenberg Sauber 11 61 +49.040
PosPilotoTeamQ1Q2Q3Diferencia con la pole
1 63 George Russell Mercedes 1:29.928 1:29.562 1:29.158 POLE Q3
2 1 Max Verstappen Red Bull 1:30.028 1:29.572 1:29.340 +0.182 Q3
3 81 Oscar Piastri McLaren 1:30.313 1:29.813 1:29.524 +0.366 Q3
4 12 Andrea Kimi Antonelli Mercedes 1:30.036 1:29.649 1:29.537 +0.379 Q3
5 4 Lando Norris McLaren 1:29.932 1:29.809 1:29.586 +0.428 Q3
6 44 Lewis Hamilton Ferrari 1:29.765 1:29.936 1:29.688 +0.530 Q3
7 16 Charles Leclerc Ferrari 1:30.370 1:29.914 1:29.784 +0.626 Q3
8 6 Isack Hadjar RB F1 Team 1:30.214 1:30.016 1:29.846 +0.688 Q3
9 87 Oliver Bearman Haas F1 Team 1:30.420 1:30.076 1:29.868 +0.710 Q3
10 14 Fernando Alonso Aston Martin 1:30.745 1:30.054 1:29.955 +0.797 Q3
11 27 Nico Hülkenberg Sauber 1:30.715 1:30.141 +0.983 Q2
12 30 Liam Lawson RB F1 Team 1:30.681 1:30.320 +1.162 Q2
13 22 Yuki Tsunoda Red Bull 1:30.574 1:30.353 +1.195 Q2
14 5 Gabriel Bortoleto Sauber 1:30.820 +1.662 Q1
15 18 Lance Stroll Aston Martin 1:30.949 +1.791 Q1
16 43 Franco Colapinto Alpine F1 Team 1:30.982 +1.824 Q1
17 31 Esteban Ocon Haas F1 Team 1:30.989 +1.831 Q1
18 10 Pierre Gasly Alpine F1 Team 1:31.261 +2.103 Q1
19 23 Alexander Albon Williams
20 55 Carlos Sainz Williams
Parrilla de salida
Oficial
12
13
15
17
18
55 Carlos Sainz ▲2
19
10 Pierre Gasly ▼1
Changes made during Parc Ferme
20
23 Alexander Albon ▼1
Technical Regulations (DRS) · Failing to set a lap time within 107% · Changes made during Parc Ferme · Use of pit exit lane during reconnaissance lap
Final grid as clasificado, including any desde el pit lane salidas. Source: Jolpica-F1. The arrow compares the grid slot with the clasificación classification; hover a drop to see the stewards document behind it.
No hay datos de esta sesión.
PosPilotoMejor vueltaDiferenciaVueltas
1 14 Fernando Alonso 1:31.116 23
2 16 Charles Leclerc 1:31.266 +0.150 25
3 1 Max Verstappen 1:31.392 +0.276 24
4 44 Lewis Hamilton 1:31.480 +0.364 23
5 81 Oscar Piastri 1:31.481 +0.365 25
6 4 Lando Norris 1:31.698 +0.582 22
7 6 Isack Hadjar 1:31.755 +0.639 28
8 55 Carlos Sainz 1:31.812 +0.696 27
9 22 Yuki Tsunoda 1:31.860 +0.744 25
10 31 Esteban Ocon 1:32.128 +1.012 24
11 63 George Russell 1:32.139 +1.023 22
12 27 Nico Hülkenberg 1:32.315 +1.199 29
13 10 Pierre Gasly 1:32.378 +1.262 26
14 12 Andrea Kimi Antonelli 1:32.399 +1.283 24
15 30 Liam Lawson 1:32.461 +1.345 27
16 87 Oliver Bearman 1:32.538 +1.422 25
17 5 Gabriel Bortoleto 1:32.611 +1.495 27
18 18 Lance Stroll 1:33.034 +1.918 18
19 43 Franco Colapinto 1:33.324 +2.208 26
20 23 Alexander Albon 1:57.029 +25.913 2
Classified by best lap · source OpenF1 (2023+)
PosPilotoMejor vueltaDiferenciaVueltas
1 81 Oscar Piastri 1:30.714 19
2 6 Isack Hadjar 1:30.846 +0.132 19
3 1 Max Verstappen 1:30.857 +0.143 19
4 14 Fernando Alonso 1:30.877 +0.163 19
5 4 Lando Norris 1:31.197 +0.483 18
6 18 Lance Stroll 1:31.222 +0.508 18
7 31 Esteban Ocon 1:31.298 +0.584 19
8 55 Carlos Sainz 1:31.299 +0.585 20
9 16 Charles Leclerc 1:31.466 +0.752 18
10 44 Lewis Hamilton 1:31.491 +0.777 17
11 22 Yuki Tsunoda 1:31.708 +0.994 18
12 87 Oliver Bearman 1:31.711 +0.997 18
13 23 Alexander Albon 1:32.060 +1.346 19
14 27 Nico Hülkenberg 1:32.069 +1.355 19
15 5 Gabriel Bortoleto 1:32.319 +1.605 19
16 10 Pierre Gasly 1:32.458 +1.744 20
17 30 Liam Lawson 1:32.645 +1.931 10
18 12 Andrea Kimi Antonelli 1:32.719 +2.005 18
19 43 Franco Colapinto 1:33.139 +2.425 20
20 63 George Russell 1:33.231 +2.517 6
Classified by best lap · source OpenF1 (2023+)
PosPilotoMejor vueltaDiferenciaVueltas
1 1 Max Verstappen 1:30.148 16
2 81 Oscar Piastri 1:30.165 +0.017 26
3 63 George Russell 1:30.197 +0.049 18
4 4 Lando Norris 1:30.237 +0.089 26
5 12 Andrea Kimi Antonelli 1:30.237 +0.089 19
6 55 Carlos Sainz 1:30.392 +0.244 23
7 6 Isack Hadjar 1:30.489 +0.341 25
8 44 Lewis Hamilton 1:30.559 +0.411 23
9 27 Nico Hülkenberg 1:30.637 +0.489 22
10 16 Charles Leclerc 1:30.651 +0.503 23
11 23 Alexander Albon 1:30.668 +0.520 23
12 5 Gabriel Bortoleto 1:30.697 +0.549 25
13 31 Esteban Ocon 1:30.784 +0.636 23
14 87 Oliver Bearman 1:30.799 +0.651 24
15 14 Fernando Alonso 1:30.923 +0.775 22
16 43 Franco Colapinto 1:31.047 +0.899 23
17 18 Lance Stroll 1:31.260 +1.112 24
18 22 Yuki Tsunoda 1:31.440 +1.292 25
19 10 Pierre Gasly 1:31.643 +1.495 23
20 30 Liam Lawson 1:33.628 +3.480 7
Classified by best lap · source OpenF1 (2023+)
#PilotoTiempo de vueltaVuelta
1 44 Lewis Hamilton 1:33.808 L48
2 44 Lewis Hamilton 1:34.312 L49
3 44 Lewis Hamilton 1:34.361 L50
4 10 Pierre Gasly 1:34.573 L53
5 10 Pierre Gasly 1:34.648 L54
6 44 Lewis Hamilton 1:34.659 L51
7 44 Lewis Hamilton 1:34.805 L52
8 44 Lewis Hamilton 1:34.887 L54
9 55 Carlos Sainz 1:34.963 L61
10 10 Pierre Gasly 1:35.016 L56
Top 10 más rápida race vueltas — #1 is the más rápida lap of la carrera(FL).
Paradas · cómo se comparan
24s 26s 28s 30s 32s mediana 24.1s Lando Norris · L26 · 23.314s Lewis Hamilton · L46 · 23.344s Charles Leclerc · L21 · 23.630s Andrea Kimi Antonelli · L25 · 23.806s Isack Hadjar · L20 · 23.827s George Russell · L25 · 23.966s Oliver Bearman · L23 · 23.979s Max Verstappen · L19 · 24.008s Lance Stroll · L38 · 24.012s Liam Lawson · L48 · 24.027s Franco Colapinto · L14 · 24.040s Carlos Sainz · L50 · 24.075s Nico Hülkenberg · L25 · 24.193s Yuki Tsunoda · L13 · 24.610s Lewis Hamilton · L24 · 24.794s Esteban Ocon · L30 · 25.078s Pierre Gasly · L51 · 25.188s Pierre Gasly · L24 · 25.583s Alexander Albon · L42 · 25.732s Oscar Piastri · L27 · 26.637s Fernando Alonso · L27 · 30.749s Nico Hülkenberg · L44 · 31.894s Gabriel Bortoleto · L13 · 32.856s
más rápida 23.314s Lando Norris más lenta 32.856s Gabriel Bortoleto tiempo de paso por el desde el pit lane — un punto por parada
PilotoParadaVueltaTiempoPaso por el desde el pit lane
22 Yuki Tsunoda 1 13 20:25:21 24.610s
5 Gabriel Bortoleto 1 13 20:25:18 32.856s
43 Franco Colapinto 1 14 20:26:53 24.040s
1 Max Verstappen 1 19 20:34:32 24.008s
6 Isack Hadjar 1 20 20:36:38 23.827s
16 Charles Leclerc 1 21 20:37:58 23.630s
87 Oliver Bearman 1 23 20:41:33 23.979s
10 Pierre Gasly 1 24 20:43:30 25.583s
44 Lewis Hamilton 1 24 20:42:55 24.794s
63 George Russell 1 25 20:44:06 23.966s
27 Nico Hülkenberg 1 25 20:44:54 24.193s
12 Andrea Kimi Antonelli 1 25 20:44:27 23.806s
4 Lando Norris 1 26 20:45:51 23.314s
81 Oscar Piastri 1 27 20:47:33 26.637s
14 Fernando Alonso 1 27 20:48:02 30.749s
31 Esteban Ocon 1 30 20:53:14 25.078s
18 Lance Stroll 1 38 21:06:26 24.012s
23 Alexander Albon 1 42 21:13:06 25.732s
27 Nico Hülkenberg 2 44 21:16:50 31.894s
44 Lewis Hamilton 2 46 21:18:37 23.344s
30 Liam Lawson 1 48 21:22:53 24.027s
55 Carlos Sainz 1 50 21:26:10 24.075s
10 Pierre Gasly 2 51 21:28:14 25.188s
paradas
SG 10 20 30 40 50 L62
63
1
M24
H38
1
1
S18·+3
H44
4
1
M25
H37
81
1
M26
H36
12
1
M24
H38
16
1
M20
H42
14
1
S26·+3
M36·+1
44
2
M23
H22
S17·+3
87
1
M22
H40
55
1
M49
S12
6
1
S19·+2
H42
22
1
S12
H49
18
1
S37
M24·+1
23
1
M41
S20
30
1
M47
S14
43
1
S13
M48
5
1
M12
H49
31
1
M29
H32
10
2
M23
H27
S11
27
2
M24
H19
S18
S Soft M Medium H Hard I Intermediate W Wet SC·VSC parada en boxes sanción cumplida en boxes
Carrera · ancho de barra = vueltas con ese juego, ·+N = montado usado con N vueltas previas · fuente OpenF1 (2023+)
Compuestos designados para este Gran Premio
C3 Duro C4 Medio C5 Blando
Pirelli designa tres de sus compuestos secos para cada prueba; cuanto mayor es el número C, más blando es el neumático. Documento FIA ↗
Más puestos ganados en pista
23
+16
P20→P14
55
+14
P18→P10
18
+13
P15→P13
14
+11
P10→P7
31
+11
P17→P18
10
+10
P19→P19
87
+9
P9→P9
22
+9
P13→P12
Más puestos perdidos
Nico Hülkenberg −15 Lance Stroll −12 Esteban Ocon −12
Carrera · Suma de posiciones ganadas en pista vuelta a vuelta — se excluyen la vuelta de salida y las vueltas de boxes propias. Datos de vueltas de carrera desde 1996.
PilotoTipoVueltaCumplidaImpuestaMotivo
44 Lewis Hamilton Time penalty Tras la carrera +5s Leaving the track without a justifiable reason, multiple times. (5 second time penalty. (5 seconds added to elapsed Carrera time).) Doc 60 ↗
Cumplida Tras la carrera · +5s Leaving the track without a justifiable reason, multiple times. (5 second time penalty. (5 seconds added to elapsed Carrera time).) Doc 60 ↗
87 Oliver Bearman Black-and-white flag warning 59 TRACK LIMITS
Vuelta 59 TRACK LIMITS
44 Lewis Hamilton Black-and-white flag warning 62 TRACK LIMITS
Vuelta 62 TRACK LIMITS
23 Alexander Albon Vueltas eliminadas 43 TRACK LIMITS (PIT)
Vuelta 43 TRACK LIMITS (PIT)
27 Nico Hülkenberg Vueltas eliminadas 46 TRACK LIMITS (PIT)
Vuelta 46 TRACK LIMITS (PIT)
27 Nico Hülkenberg Vueltas eliminadas 47 TRACK LIMITS (PIT)
Vuelta 47 TRACK LIMITS (PIT)
Vuelta = vuelta en que se impuso la sanción · Cumplida = vuelta en que se cumplió en boxes (en blanco: se sumó al tiempo de carrera)
Time, drive-through and stop-go penalties come from race control messages (OpenF1, 2023+). Parrilla penalties never appear there — the stewards publish them as documents after the session — so they are worked back from the starting grid against the clasificación classification, which gives places actually lost rather than the figure written in the decision.
PilotoTipoVueltaCumplidaImpuestaMotivo
23 Alexander Albon Pit lane start The setup of the suspension has been changed while under Parc Ferme. (Required to start the Carrera from the desde el pit lane.) Doc 52 ↗
The setup of the suspension has been changed while under Parc Ferme. (Required to start the Carrera from the desde el pit lane.) Doc 52 ↗
10 Pierre Gasly Pit lane start The floor has been changed for one of a different specification and the setup of the suspension has been changed while under Parc Ferme. (Required to start the Carrera from the desde el pit lane.) Doc 51 ↗
The floor has been changed for one of a different specification and the setup of the suspension has been changed while under Parc Ferme. (Required to start the Carrera from the desde el pit lane.) Doc 51 ↗
55 Carlos Sainz 실격 Car 55 exceeded the maximum limit of 85 mm on both sides of the rear wing outer area. (Disqualification of Clasificación) Doc 43 ↗
Car 55 exceeded the maximum limit of 85 mm on both sides of the rear wing outer area. (Disqualification of Clasificación) Doc 43 ↗
23 Alexander Albon 실격 Car 23 exceeded the maximum limit of 85 mm on both sides of the rear wing outer area. (Disqualification from Clasificación) Doc 42 ↗
Car 23 exceeded the maximum limit of 85 mm on both sides of the rear wing outer area. (Disqualification from Clasificación) Doc 42 ↗
22 Yuki Tsunoda No further action Allegedly failing to slow under yellow flags (No Further Action.) Doc 40 ↗
Allegedly failing to slow under yellow flags (No Further Action.) Doc 40 ↗
27 Nico Hülkenberg No further action Allegedly failing to slow under yellow flags (No further action.) Doc 39 ↗
Allegedly failing to slow under yellow flags (No further action.) Doc 39 ↗
5 Gabriel Bortoleto No further action Allegedly failing to slow under yellow flags (No Further Action.) Doc 38 ↗
Allegedly failing to slow under yellow flags (No Further Action.) Doc 38 ↗
63 George Russell No further action Allegedly failing to slow under yellow flags. (No further action.) Doc 37 ↗
Allegedly failing to slow under yellow flags. (No further action.) Doc 37 ↗
23 Alexander Albon Vueltas eliminadas TRACK LIMITS (PIT)
TRACK LIMITS (PIT)
12 Andrea Kimi Antonelli Vueltas eliminadas TRACK LIMITS (PIT)
TRACK LIMITS (PIT)
31 Esteban Ocon Vueltas eliminadas TRACK LIMITS (PIT)
TRACK LIMITS (PIT)
55 Carlos Sainz Vueltas eliminadas TRACK LIMITS
TRACK LIMITS
87 Oliver Bearman Vueltas eliminadas TRACK LIMITS (PIT)
TRACK LIMITS (PIT)
Vuelta = vuelta en que se impuso la sanción · Cumplida = vuelta en que se cumplió en boxes (en blanco: se sumó al tiempo de carrera)
Time, drive-through and stop-go penalties come from race control messages (OpenF1, 2023+). Parrilla penalties never appear there — the stewards publish them as documents after the session — so they are worked back from the starting grid against the clasificación classification, which gives places actually lost rather than the figure written in the decision.
PilotoTipoVueltaCumplidaImpuestaMotivo
44 Lewis Hamilton No further action Allegedly failing to comply with a bandera roja. (No further action.) Doc 26 ↗
Allegedly failing to comply with a bandera roja. (No further action.) Doc 26 ↗
Vuelta = vuelta en que se impuso la sanción · Cumplida = vuelta en que se cumplió en boxes (en blanco: se sumó al tiempo de carrera)
Time, drive-through and stop-go penalties come from race control messages (OpenF1, 2023+). Parrilla penalties never appear there — the stewards publish them as documents after the session — so they are worked back from the starting grid against the clasificación classification, which gives places actually lost rather than the figure written in the decision.
PilotoTipoVueltaCumplidaImpuestaMotivo
16 Charles Leclerc Fine €10,000 Unsafe Release (The competitor (Scuderia Ferrari HP) is fined €10,000.) Doc 21 ↗
€10,000 Unsafe Release (The competitor (Scuderia Ferrari HP) is fined €10,000.) Doc 21 ↗
Vuelta = vuelta en que se impuso la sanción · Cumplida = vuelta en que se cumplió en boxes (en blanco: se sumó al tiempo de carrera)
Time, drive-through and stop-go penalties come from race control messages (OpenF1, 2023+). Parrilla penalties never appear there — the stewards publish them as documents after the session — so they are worked back from the starting grid against the clasificación classification, which gives places actually lost rather than the figure written in the decision.
PilotoTipoVueltaCumplidaImpuestaMotivo
23 Alexander Albon Amonestación Use of pit exit lane during reconnaissance lap (Amonestación (driving) to the driver) Doc 56 ↗
Use of pit exit lane during reconnaissance lap (Amonestación (driving) to the driver) Doc 56 ↗
Vuelta = vuelta en que se impuso la sanción · Cumplida = vuelta en que se cumplió en boxes (en blanco: se sumó al tiempo de carrera)
Time, drive-through and stop-go penalties come from race control messages (OpenF1, 2023+). Parrilla penalties never appear there — the stewards publish them as documents after the session — so they are worked back from the starting grid against the clasificación classification, which gives places actually lost rather than the figure written in the decision.
DocTítuloAsuntoPublished(CET)
1 Event Notes - Pirelli Preview ↗ 2025-10-01 10:22
2025-10-01 10:22 CET
2 Post-Carrera Checks on Car 55, 2025 Azerbaijan GP ↗ 55 Carlos Sainz 2025-10-01 10:49
55 Carlos Sainz 2025-10-01 10:49 CET
3 Heat Hazard Declaration ↗ 2025-10-02 06:30
2025-10-02 06:30 CET
4 Garage Doors ↗ 2025-10-02 09:26
2025-10-02 09:26 CET
5 Car Display Procedure ↗ 2025-10-02 14:42
2025-10-02 14:42 CET
6 Carrera Director's Event Notes ↗ 2025-10-02 15:52
2025-10-02 15:52 CET
7 Event Notes - Circuito Map, Pit Lane, Emergency Exits Map and Quarantine Zone ↗ 2025-10-02 16:11
2025-10-02 16:11 CET
8 PU elements usados per driver up to now ↗ 2025-10-03 07:50
2025-10-03 07:50 CET
9 Self Scrutineering ↗ 2025-10-03 07:52
2025-10-03 07:52 CET
10 Car Presentation Submissions ↗ 2025-10-03 09:00
2025-10-03 09:00 CET
12 Entry List ↗ 2025-10-03 09:55
2025-10-03 09:55 CET
13 Carrera Director's Event Notes V2 ↗ 2025-10-03 10:05
2025-10-03 10:05 CET
14 P1 Classification ↗ 2025-10-03 12:54
2025-10-03 12:54 CET
15 Summons - Car 16 - Alleged unsafe release ↗ 16 Charles Leclerc 2025-10-03 16:10
16 Charles Leclerc 2025-10-03 16:10 CET
17 P2 Classification ↗ 2025-10-03 16:18
2025-10-03 16:18 CET
18 Summons - Car 4 - Alleged unsafe release ↗ 4 Lando Norris 2025-10-03 16:33
4 Lando Norris 2025-10-03 16:33 CET
19 Carrera Director Notes - SC2 - SC1 Times ↗ 2025-10-03 16:34
2025-10-03 16:34 CET
20 P1 and P2 Scrutineering ↗ 2025-10-03 17:53
2025-10-03 17:53 CET
21 Infringement - Car 16 - Unsafe release ↗ 16 Charles Leclerc 2025-10-03 18:27
16 Charles Leclerc 2025-10-03 18:27 CET
22 Post-Clasificación Procedure ↗ 2025-10-04 09:17
2025-10-04 09:17 CET
23 New PU elements for this Competition ↗ 2025-10-04 12:17
2025-10-04 12:17 CET
24 Summons - Car 44 - Failing to comply with a bandera roja ↗ 44 Lewis Hamilton 2025-10-04 12:47
44 Lewis Hamilton 2025-10-04 12:47 CET
25 P3 Classification ↗ 2025-10-04 12:58
2025-10-04 12:58 CET
26 Decision - Car 44 - Allegedly failing to comply with a bandera roja ↗ 44 Lewis Hamilton 2025-10-04 14:31
44 Lewis Hamilton 2025-10-04 14:31 CET
27 Summons - Car 5 - Alleged yellow flag infringement ↗ 5 Gabriel Bortoleto 2025-10-04 16:14
5 Gabriel Bortoleto 2025-10-04 16:14 CET
28 Summons - Car 27 - Alleged yellow flag infringement ↗ 27 Nico Hülkenberg 2025-10-04 16:14
27 Nico Hülkenberg 2025-10-04 16:14 CET
29 Summons - Car 22 - Alleged yellow flag infringement ↗ 22 Yuki Tsunoda 2025-10-04 16:14
22 Yuki Tsunoda 2025-10-04 16:14 CET
30 Provisional Clasificación Classification ↗ 2025-10-04 16:27
2025-10-04 16:27 CET
31 DRS Infringement ↗ 2025-10-04 16:43
2025-10-04 16:43 CET
32 Infringement - Clasificación Deleted Vuelta Times ↗ 2025-10-04 17:07
2025-10-04 17:07 CET
33 Infringement - Clasificación Deleted Vuelta Times - Double Yellow ↗ 2025-10-04 17:08
2025-10-04 17:08 CET
34 Summons - Car 23 - Technical Regulations (DRS) ↗ 23 Alexander Albon 2025-10-04 17:08
23 Alexander Albon 2025-10-04 17:08 CET
35 Summons - Car 55 - Technical Regulations (DRS) ↗ 55 Carlos Sainz 2025-10-04 17:09
55 Carlos Sainz 2025-10-04 17:09 CET
36 Decision - Clasificación SC2 - SC1 Times ↗ 2025-10-04 17:16
2025-10-04 17:16 CET
37 Decision - Car 63 - Allegedly failing to slow under yellow flags ↗ 63 George Russell 2025-10-04 18:02
63 George Russell 2025-10-04 18:02 CET
38 Decision - Car 5 - Alleged yellow flag infringement ↗ 5 Gabriel Bortoleto 2025-10-04 18:17
5 Gabriel Bortoleto 2025-10-04 18:17 CET
39 Decision - Car 27 - Alleged yellow flag infringement ↗ 27 Nico Hülkenberg 2025-10-04 18:18
27 Nico Hülkenberg 2025-10-04 18:18 CET
40 Decision - Car 22 - Alleged yellow flag infringement ↗ 22 Yuki Tsunoda 2025-10-04 18:18
22 Yuki Tsunoda 2025-10-04 18:18 CET
41 P3 and Clasificación Scrutineering ↗ 2025-10-04 18:35
2025-10-04 18:35 CET
42 Infringement - Car 23 - Technical Regulations (DRS) ↗ 23 Alexander Albon 2025-10-04 18:42
23 Alexander Albon 2025-10-04 18:42 CET
43 Infringement - Car 55 - Technical Regulations (DRS) ↗ 55 Carlos Sainz 2025-10-04 18:43
55 Carlos Sainz 2025-10-04 18:43 CET
44 Decision - Car 23 - Failing to set a lap time within 107% ↗ 23 Alexander Albon 2025-10-04 18:43
23 Alexander Albon 2025-10-04 18:43 CET
45 Decision - Car 55 - Failing to set a lap time within 107% ↗ 55 Carlos Sainz 2025-10-04 18:43
55 Carlos Sainz 2025-10-04 18:43 CET
46 Final Clasificación Classification ↗ 2025-10-04 19:13
2025-10-04 19:13 CET
47 Provisional Starting Parrilla ↗ 2025-10-04 19:15
2025-10-04 19:15 CET
48 Parc Fermé Issues ↗ 2025-10-05 11:07
2025-10-05 11:07 CET
49 Pre-Carrera Procedure ↗ 2025-10-05 11:10
2025-10-05 11:10 CET
50 Post-Carrera Procedure ↗ 2025-10-05 11:29
2025-10-05 11:29 CET
51 Infringement - Car 10 - Changes made during Parc Ferme ↗ 10 Pierre Gasly 2025-10-05 12:13
10 Pierre Gasly 2025-10-05 12:13 CET
52 Infringement - Car 23 - Changes made during Parc Ferme ↗ 23 Alexander Albon 2025-10-05 12:14
23 Alexander Albon 2025-10-05 12:14 CET
53 New PU elements for this Competition ↗ 2025-10-05 12:56
2025-10-05 12:56 CET
54 Parts and parameters been replaced and or changed during Parc Fermé ↗ 2025-10-05 12:56
2025-10-05 12:56 CET
55 Final Starting Parrilla ↗ 2025-10-05 13:00
2025-10-05 13:00 CET
56 Infringement - Car 23 - Use of pit exit lane during reconnaissance lap ↗ 23 Alexander Albon 2025-10-05 15:53
23 Alexander Albon 2025-10-05 15:53 CET
57 Provisional Carrera Classification ↗ 2025-10-05 16:05
2025-10-05 16:05 CET
58 Summons - Car 44 - Track Limits ↗ 44 Lewis Hamilton 2025-10-05 16:18
44 Lewis Hamilton 2025-10-05 16:18 CET
59 Infringement - Carrera Deleted Vuelta Times ↗ 2025-10-05 17:01
2025-10-05 17:01 CET
60 Infringement - Car 44 - Leaving the track without a justifiable reason multiple times ↗ 44 Lewis Hamilton 2025-10-05 17:08
44 Lewis Hamilton 2025-10-05 17:08 CET
61 Carrera Scrutineering ↗ 2025-10-05 18:18
2025-10-05 18:18 CET
62 Final Carrera Classification ↗ 2025-10-05 18:35
2025-10-05 18:35 CET
63 Campeonato Puntos ↗ 2025-10-05 18:45
2025-10-05 18:45 CET
FIA official decisions and documents (fia.com) · PDF original PDF links
Record Basis · Calculation basis
Carrera order is the final classification(post-race penalties applied) · clasificación session data 2003+ · lap times 1996+ · pit stops 2012+ (pit-lane transit, not stationary time) · Abandono = Finished(Finished·+N Vueltas) non-Finished statuses
Fuentes de datos: Jolpica-F1 (Ergast compatible API) · weather·Dirección de carrera OpenF1 (2023+) · Last fetched: 2026-09-05 14:15